Year,Month,Day,Hour,Minute,Value (Times are PST for temperature in C)
2009,05,26,00,00,14.80
2009,05,26,00,01,14.80
2009,05,26,00,02,14.80
2009,05,26,00,03,14.80
2009,05,26,00,04,14.80
2009,05,26,00,05,14.80
2009,05,26,00,06,14.80
2009,05,26,00,07,14.80
2009,05,26,00,08,14.80
2009,05,26,00,09,14.80
2009,05,26,00,10,14.80
2009,05,26,00,11,14.80
2009,05,26,00,12,14.70
2009,05,26,00,13,14.70
2009,05,26,00,18,14.70
2009,05,26,00,19,14.70
2009,05,26,00,20,14.60
2009,05,26,00,21,14.60
2009,05,26,00,22,14.60
2009,05,26,00,23,14.60
2009,05,26,00,24,14.60
2009,05,26,00,25,14.60
2009,05,26,00,26,14.60
2009,05,26,00,27,14.60
2009,05,26,00,28,14.60
2009,05,26,00,29,14.60
2009,05,26,00,30,14.60
2009,05,26,00,31,14.50
2009,05,26,00,32,14.50
2009,05,26,00,33,14.50
2009,05,26,00,34,14.50
2009,05,26,00,35,14.50
2009,05,26,00,36,14.50
2009,05,26,00,37,14.40
2009,05,26,00,38,14.40
2009,05,26,00,39,14.40
2009,05,26,00,40,14.40
2009,05,26,00,41,14.40
2009,05,26,00,42,14.40
2009,05,26,00,43,14.40
2009,05,26,00,44,14.40
2009,05,26,00,45,14.40
2009,05,26,00,46,14.40
2009,05,26,00,47,14.40
2009,05,26,00,48,14.40
2009,05,26,00,49,14.30
2009,05,26,00,50,14.30
2009,05,26,00,51,14.40
2009,05,26,00,52,14.40
2009,05,26,00,53,14.40
2009,05,26,00,54,14.40
2009,05,26,00,55,14.40
2009,05,26,00,56,14.40
2009,05,26,00,57,14.40
2009,05,26,00,58,14.40
2009,05,26,00,59,14.40
2009,05,26,01,00,14.40
2009,05,26,01,01,14.40
2009,05,26,01,02,14.30
2009,05,26,01,03,14.30
2009,05,26,01,04,14.30
2009,05,26,01,05,14.30
2009,05,26,01,06,14.30
2009,05,26,01,07,14.30
2009,05,26,01,08,14.30
2009,05,26,01,09,14.30
2009,05,26,01,10,14.30
2009,05,26,01,11,14.30
2009,05,26,01,12,14.30
2009,05,26,01,13,14.30
2009,05,26,01,14,14.30
2009,05,26,01,15,14.30
2009,05,26,01,16,14.30
2009,05,26,01,17,14.30
2009,05,26,01,18,14.20
2009,05,26,01,19,14.20
2009,05,26,01,20,14.20
2009,05,26,01,21,14.20
2009,05,26,01,22,14.20
2009,05,26,01,23,14.20
2009,05,26,01,24,14.20
2009,05,26,01,25,14.20
2009,05,26,01,26,14.20
2009,05,26,01,27,14.20
2009,05,26,01,28,14.20
2009,05,26,01,29,14.20
2009,05,26,01,30,14.20
2009,05,26,01,31,14.10
2009,05,26,01,32,14.10
2009,05,26,01,33,14.10
2009,05,26,01,34,14.10
2009,05,26,01,35,14.10
2009,05,26,01,36,14.10
2009,05,26,01,37,14.10
2009,05,26,01,38,14.10
2009,05,26,01,39,14.10
2009,05,26,01,40,14.10
2009,05,26,01,41,14.10
2009,05,26,01,42,14.10
2009,05,26,01,43,14.10
2009,05,26,01,44,14.10
2009,05,26,01,45,14.10
2009,05,26,01,46,14.10
2009,05,26,01,47,14.10
2009,05,26,01,48,14.10
2009,05,26,01,49,14.10
2009,05,26,01,50,14.00
2009,05,26,01,51,14.00
2009,05,26,01,52,14.00
2009,05,26,01,53,14.00
2009,05,26,01,54,13.90
2009,05,26,01,55,13.90
2009,05,26,01,56,13.90
2009,05,26,01,57,13.90
2009,05,26,01,58,13.90
2009,05,26,01,59,13.90
2009,05,26,02,00,13.90
2009,05,26,02,01,13.80
2009,05,26,02,02,13.80
2009,05,26,02,03,13.80
2009,05,26,02,04,13.80
2009,05,26,02,05,13.80
2009,05,26,02,06,13.80
2009,05,26,02,07,13.80
2009,05,26,02,08,13.80
2009,05,26,02,09,13.80
2009,05,26,02,10,13.80
2009,05,26,02,11,13.70
2009,05,26,02,12,13.70
2009,05,26,02,13,13.70
2009,05,26,02,14,13.70
2009,05,26,02,15,13.70
2009,05,26,02,16,13.80
2009,05,26,02,17,13.80
2009,05,26,02,18,13.70
2009,05,26,02,19,13.70
2009,05,26,02,20,13.70
2009,05,26,02,21,13.70
2009,05,26,02,22,13.70
2009,05,26,02,23,13.70
2009,05,26,02,24,13.70
2009,05,26,02,25,13.70
2009,05,26,02,26,13.70
2009,05,26,02,27,13.70
2009,05,26,02,28,13.60
2009,05,26,02,29,13.60
2009,05,26,02,30,13.60
2009,05,26,02,31,13.60
2009,05,26,02,32,13.60
2009,05,26,02,33,13.50
2009,05,26,02,34,13.50
2009,05,26,02,35,13.50
2009,05,26,02,36,13.50
2009,05,26,02,37,13.40
2009,05,26,02,38,13.40
2009,05,26,02,39,13.40
2009,05,26,02,40,13.40
2009,05,26,02,41,13.40
2009,05,26,02,42,13.40
2009,05,26,02,43,13.30
2009,05,26,02,44,13.30
2009,05,26,02,45,13.30
2009,05,26,02,46,13.30
2009,05,26,02,47,13.20
2009,05,26,02,48,13.20
2009,05,26,02,49,13.20
2009,05,26,02,50,13.20
2009,05,26,02,51,13.20
2009,05,26,02,52,13.20
2009,05,26,02,53,13.20
2009,05,26,02,54,13.20
2009,05,26,02,55,13.10
2009,05,26,02,56,13.10
2009,05,26,02,57,13.10
2009,05,26,02,58,13.10
2009,05,26,02,59,13.10
2009,05,26,03,00,13.00
2009,05,26,03,01,13.00
2009,05,26,03,02,13.00
2009,05,26,03,03,12.90
2009,05,26,03,04,12.90
2009,05,26,03,05,12.90
2009,05,26,03,06,12.90
2009,05,26,03,07,12.90
2009,05,26,03,08,12.90
2009,05,26,03,09,12.90
2009,05,26,03,10,12.80
2009,05,26,03,11,12.80
2009,05,26,03,12,12.80
2009,05,26,03,13,12.80
2009,05,26,03,14,12.80
2009,05,26,03,15,12.80
2009,05,26,03,16,12.80
2009,05,26,03,17,12.80
2009,05,26,03,18,12.80
2009,05,26,03,19,12.80
2009,05,26,03,20,12.70
2009,05,26,03,21,12.70
2009,05,26,03,22,12.70
2009,05,26,03,23,12.70
2009,05,26,03,24,12.70
2009,05,26,03,25,12.70
2009,05,26,03,26,12.70
2009,05,26,03,27,12.60
2009,05,26,03,28,12.60
2009,05,26,03,29,12.60
2009,05,26,03,30,12.60
2009,05,26,03,31,12.60
2009,05,26,03,32,12.60
2009,05,26,03,33,12.60
2009,05,26,03,34,12.60
2009,05,26,03,35,12.60
2009,05,26,03,36,12.50
2009,05,26,03,37,12.50
2009,05,26,03,38,12.50
2009,05,26,03,39,12.50
2009,05,26,03,40,12.50
2009,05,26,03,41,12.50
2009,05,26,03,42,12.40
2009,05,26,03,43,12.40
2009,05,26,03,44,12.40
2009,05,26,03,45,12.40
2009,05,26,03,46,12.40
2009,05,26,03,47,12.40
2009,05,26,03,48,12.40
2009,05,26,03,49,12.40
2009,05,26,03,50,12.40
2009,05,26,03,51,12.30
2009,05,26,03,52,12.30
2009,05,26,03,53,12.30
2009,05,26,03,54,12.30
2009,05,26,03,55,12.30
2009,05,26,03,56,12.30
2009,05,26,03,57,12.30
2009,05,26,03,58,12.30
2009,05,26,03,59,12.30
2009,05,26,04,00,12.30
2009,05,26,04,01,12.30
2009,05,26,04,02,12.30
2009,05,26,04,03,12.20
2009,05,26,04,04,12.20
2009,05,26,04,05,12.20
2009,05,26,04,06,12.20
2009,05,26,04,07,12.20
2009,05,26,04,08,12.20
2009,05,26,04,09,12.20
2009,05,26,04,10,12.20
2009,05,26,04,11,12.20
2009,05,26,04,12,12.20
2009,05,26,04,13,12.20
2009,05,26,04,14,12.20
2009,05,26,04,15,12.20
2009,05,26,04,16,12.20
2009,05,26,04,17,12.20
2009,05,26,04,18,12.20
2009,05,26,04,19,12.20
2009,05,26,04,20,12.20
2009,05,26,04,21,12.10
2009,05,26,04,22,12.20
2009,05,26,04,23,12.20
2009,05,26,04,24,12.10
2009,05,26,04,25,12.10
2009,05,26,04,26,12.10
2009,05,26,04,27,12.10
2009,05,26,04,28,12.10
2009,05,26,04,29,12.10
2009,05,26,04,30,12.10
2009,05,26,04,31,12.10
2009,05,26,04,32,12.10
2009,05,26,04,33,12.10
2009,05,26,04,34,12.10
2009,05,26,04,35,12.10
2009,05,26,04,36,12.10
2009,05,26,04,37,12.10
2009,05,26,04,38,12.00
2009,05,26,04,39,12.10
2009,05,26,04,40,12.10
2009,05,26,04,41,12.00
2009,05,26,04,42,12.00
2009,05,26,04,43,12.00
2009,05,26,04,44,12.00
2009,05,26,04,45,12.00
2009,05,26,04,46,12.00
2009,05,26,04,47,12.00
2009,05,26,04,48,12.00
2009,05,26,04,49,12.00
2009,05,26,04,50,12.00
2009,05,26,04,51,12.00
2009,05,26,04,52,12.00
2009,05,26,04,53,11.90
2009,05,26,04,54,11.90
2009,05,26,04,55,11.90
2009,05,26,04,56,11.90
2009,05,26,04,57,11.90
2009,05,26,04,58,11.90
2009,05,26,04,59,11.90
2009,05,26,05,00,11.90
2009,05,26,05,01,11.90
2009,05,26,05,02,11.90
2009,05,26,05,03,11.90
2009,05,26,05,04,11.80
2009,05,26,05,05,11.80
2009,05,26,05,06,11.80
2009,05,26,05,07,11.80
2009,05,26,05,08,11.80
2009,05,26,05,09,11.80
2009,05,26,05,10,11.80
2009,05,26,05,11,11.80
2009,05,26,05,12,11.80
2009,05,26,05,13,11.80
2009,05,26,05,14,11.80
2009,05,26,05,15,11.80
2009,05,26,05,16,11.80
2009,05,26,05,17,11.80
2009,05,26,05,18,11.80
2009,05,26,05,19,11.80
2009,05,26,05,20,11.80
2009,05,26,05,21,11.80
2009,05,26,05,22,11.80
2009,05,26,05,23,11.80
2009,05,26,05,24,11.80
2009,05,26,05,25,11.80
2009,05,26,05,26,11.80
2009,05,26,05,27,11.80
2009,05,26,05,28,11.80
2009,05,26,05,29,11.80
2009,05,26,05,30,11.80
2009,05,26,05,31,11.80
2009,05,26,05,32,11.80
2009,05,26,05,33,11.70
2009,05,26,05,34,11.70
2009,05,26,05,35,11.70
2009,05,26,05,36,11.70
2009,05,26,05,37,11.70
2009,05,26,05,38,11.70
2009,05,26,05,39,11.60
2009,05,26,05,40,11.60
2009,05,26,05,41,11.50
2009,05,26,05,42,11.50
2009,05,26,05,43,11.50
2009,05,26,05,44,11.40
2009,05,26,05,45,11.40
2009,05,26,05,46,11.40
2009,05,26,05,47,11.40
2009,05,26,05,48,11.30
2009,05,26,05,49,11.30
2009,05,26,05,50,11.30
2009,05,26,05,51,11.30
2009,05,26,05,52,11.30
2009,05,26,05,53,11.20
2009,05,26,05,54,11.20
2009,05,26,05,55,11.20
2009,05,26,05,56,11.20
2009,05,26,05,57,11.20
2009,05,26,05,58,11.10
2009,05,26,05,59,11.10
2009,05,26,06,00,11.10
2009,05,26,06,01,11.10
2009,05,26,06,02,11.10
2009,05,26,06,03,11.00
2009,05,26,06,04,11.00
2009,05,26,06,05,11.00
2009,05,26,06,06,10.90
2009,05,26,06,07,10.90
2009,05,26,06,08,10.90
2009,05,26,06,09,10.90
2009,05,26,06,10,10.90
2009,05,26,06,11,10.90
2009,05,26,06,12,10.90
2009,05,26,06,13,10.90
2009,05,26,06,14,10.90
2009,05,26,06,15,10.90
2009,05,26,06,16,10.80
2009,05,26,06,17,10.80
2009,05,26,06,18,10.80
2009,05,26,06,19,10.80
2009,05,26,06,20,10.80
2009,05,26,06,21,10.80
2009,05,26,06,22,10.80
2009,05,26,06,23,10.80
2009,05,26,06,24,10.80
2009,05,26,06,25,10.80
2009,05,26,06,26,10.80
2009,05,26,06,27,10.80
2009,05,26,06,28,10.80
2009,05,26,06,29,10.80
2009,05,26,06,30,10.80
2009,05,26,06,31,10.80
2009,05,26,06,32,10.80
2009,05,26,06,33,10.80
2009,05,26,06,34,10.80
2009,05,26,06,35,10.80
2009,05,26,06,36,10.80
2009,05,26,06,37,10.70
2009,05,26,06,38,10.70
2009,05,26,06,39,10.70
2009,05,26,06,40,10.70
2009,05,26,06,41,10.70
2009,05,26,06,42,10.70
2009,05,26,06,43,10.70
2009,05,26,06,44,10.70
2009,05,26,06,45,10.70
2009,05,26,06,46,10.70
2009,05,26,06,47,10.70
2009,05,26,06,48,10.70
2009,05,26,06,49,10.70
2009,05,26,06,50,10.70
2009,05,26,06,51,10.70
2009,05,26,06,52,10.70
2009,05,26,06,53,10.70
2009,05,26,06,54,10.70
2009,05,26,06,55,10.70
2009,05,26,06,56,10.70
2009,05,26,06,57,10.60
2009,05,26,06,58,10.60
2009,05,26,06,59,10.70
2009,05,26,07,00,10.70
2009,05,26,07,01,10.70
2009,05,26,07,02,10.70
2009,05,26,07,03,10.70
2009,05,26,07,04,10.70
2009,05,26,07,05,10.70
2009,05,26,07,06,10.70
2009,05,26,07,07,10.70
2009,05,26,07,08,10.70
2009,05,26,07,09,10.70
2009,05,26,07,10,10.70
2009,05,26,07,11,10.70
2009,05,26,07,12,10.70
2009,05,26,07,13,10.70
2009,05,26,07,14,10.70
2009,05,26,07,15,10.70
2009,05,26,07,16,10.70
2009,05,26,07,17,10.70
2009,05,26,07,18,10.60
2009,05,26,07,19,10.60
2009,05,26,07,20,10.60
2009,05,26,07,21,10.60
2009,05,26,07,22,10.60
2009,05,26,07,23,10.60
2009,05,26,07,24,10.50
2009,05,26,07,25,10.60
2009,05,26,07,26,10.60
2009,05,26,07,27,10.60
2009,05,26,07,28,10.60
2009,05,26,07,29,10.60
2009,05,26,07,30,10.60
2009,05,26,07,31,10.60
2009,05,26,07,32,10.60
2009,05,26,07,33,10.60
2009,05,26,07,34,10.60
2009,05,26,07,35,10.60
2009,05,26,07,36,10.70
2009,05,26,07,37,10.70
2009,05,26,07,38,10.70
2009,05,26,07,39,10.70
2009,05,26,07,40,10.70
2009,05,26,07,41,10.70
2009,05,26,07,42,10.70
2009,05,26,07,43,10.70
2009,05,26,07,44,10.70
2009,05,26,07,45,10.80
2009,05,26,07,46,10.80
2009,05,26,07,47,10.80
2009,05,26,07,48,10.80
2009,05,26,07,49,10.80
2009,05,26,07,50,10.80
2009,05,26,07,51,10.80
2009,05,26,07,52,10.80
2009,05,26,07,53,10.80
2009,05,26,07,54,10.80
2009,05,26,07,55,10.80
2009,05,26,07,56,10.80
2009,05,26,07,57,10.80
2009,05,26,07,58,10.80
2009,05,26,07,59,10.80
2009,05,26,08,00,10.80
2009,05,26,08,01,10.80
2009,05,26,08,02,10.80
2009,05,26,08,03,10.80
2009,05,26,08,04,10.80
2009,05,26,08,05,10.80
2009,05,26,08,06,10.80
2009,05,26,08,07,10.80
2009,05,26,08,08,10.80
2009,05,26,08,09,10.80
2009,05,26,08,10,10.80
2009,05,26,08,11,10.80
2009,05,26,08,12,10.80
2009,05,26,08,13,10.80
2009,05,26,08,14,10.80
2009,05,26,08,15,10.80
2009,05,26,08,16,10.80
2009,05,26,08,17,10.80
2009,05,26,08,18,10.80
2009,05,26,08,19,10.80
2009,05,26,08,20,10.80
2009,05,26,08,21,10.80
2009,05,26,08,22,10.80
2009,05,26,08,23,10.80
2009,05,26,08,24,10.80
2009,05,26,08,25,10.80
2009,05,26,08,26,10.80
2009,05,26,08,27,10.80
2009,05,26,08,28,10.80
2009,05,26,08,29,10.80
2009,05,26,08,30,10.80
2009,05,26,08,31,10.80
2009,05,26,08,32,10.80
2009,05,26,08,33,10.80
2009,05,26,08,34,10.80
2009,05,26,08,35,10.80
2009,05,26,08,36,10.80
2009,05,26,08,37,10.80
2009,05,26,08,38,10.80
2009,05,26,08,39,10.80
2009,05,26,08,40,10.80
2009,05,26,08,41,10.80
2009,05,26,08,42,10.80
2009,05,26,08,43,10.80
2009,05,26,08,44,10.80
2009,05,26,08,45,10.80
2009,05,26,08,46,10.80
2009,05,26,08,47,10.80
2009,05,26,08,48,10.80
2009,05,26,08,49,10.80
2009,05,26,08,50,10.80
2009,05,26,08,51,10.80
2009,05,26,08,52,10.80
2009,05,26,08,53,10.80
2009,05,26,08,54,10.80
2009,05,26,08,55,10.80
2009,05,26,08,56,10.80
2009,05,26,08,57,10.80
2009,05,26,08,58,10.80
2009,05,26,08,59,10.90
2009,05,26,09,00,10.90
2009,05,26,09,01,10.90
2009,05,26,09,02,10.90
2009,05,26,09,03,10.90
2009,05,26,09,04,10.90
2009,05,26,09,05,10.90
2009,05,26,09,06,10.90
2009,05,26,09,07,10.90
2009,05,26,09,08,10.90
2009,05,26,09,09,10.90
2009,05,26,09,10,10.90
2009,05,26,09,11,10.90
2009,05,26,09,12,10.90
2009,05,26,09,13,11.00
2009,05,26,09,14,11.00
2009,05,26,09,15,11.00
2009,05,26,09,16,11.10
2009,05,26,09,17,11.20
2009,05,26,09,18,11.20
2009,05,26,09,19,11.20
2009,05,26,09,20,11.30
2009,05,26,09,21,11.30
2009,05,26,09,22,11.30
2009,05,26,09,23,11.30
2009,05,26,09,24,11.30
2009,05,26,09,25,11.30
2009,05,26,09,26,11.30
2009,05,26,09,27,11.30
2009,05,26,09,28,11.30
2009,05,26,09,29,11.30
2009,05,26,09,30,11.30
2009,05,26,09,31,11.30
2009,05,26,09,32,11.30
2009,05,26,09,33,11.30
2009,05,26,09,34,11.30
2009,05,26,09,35,11.30
2009,05,26,09,36,11.40
2009,05,26,09,37,11.30
2009,05,26,09,38,11.30
2009,05,26,09,39,11.40
2009,05,26,09,40,11.40
2009,05,26,09,41,11.40
2009,05,26,09,42,11.40
2009,05,26,09,43,11.50
2009,05,26,09,44,11.60
2009,05,26,09,45,11.60
2009,05,26,09,46,11.60
2009,05,26,09,47,11.60
2009,05,26,09,48,11.70
2009,05,26,09,49,11.70
2009,05,26,09,50,11.70
2009,05,26,09,51,11.80
2009,05,26,09,52,11.80
2009,05,26,09,53,11.80
2009,05,26,09,54,11.80
2009,05,26,09,55,11.80
2009,05,26,09,56,11.90
2009,05,26,09,57,11.90
2009,05,26,09,58,11.90
2009,05,26,09,59,11.90
2009,05,26,10,00,11.90
2009,05,26,10,01,11.90
2009,05,26,10,02,12.00
2009,05,26,10,03,12.00
2009,05,26,10,04,12.10
2009,05,26,10,05,12.10
2009,05,26,10,06,12.10
2009,05,26,10,07,12.20
2009,05,26,10,08,12.20
2009,05,26,10,09,12.30
2009,05,26,10,10,12.30
2009,05,26,10,11,12.30
2009,05,26,10,12,12.40
2009,05,26,10,13,12.40
2009,05,26,10,14,12.50
2009,05,26,10,15,12.50
2009,05,26,10,16,12.60
2009,05,26,10,17,12.70
2009,05,26,10,18,12.70
2009,05,26,10,19,12.60
2009,05,26,10,20,12.60
2009,05,26,10,21,12.60
2009,05,26,10,22,12.60
2009,05,26,10,23,12.50
2009,05,26,10,24,12.50
2009,05,26,10,25,12.60
2009,05,26,10,26,12.60
2009,05,26,10,27,12.70
2009,05,26,10,28,12.70
2009,05,26,10,29,12.70
2009,05,26,10,30,12.80
2009,05,26,10,31,12.80
2009,05,26,10,32,12.80
2009,05,26,10,33,12.80
2009,05,26,10,34,12.80
2009,05,26,10,35,12.80
2009,05,26,10,36,12.80
2009,05,26,10,37,12.90
2009,05,26,10,38,13.00
2009,05,26,10,39,13.00
2009,05,26,10,40,13.10
2009,05,26,10,41,13.10
2009,05,26,10,42,13.10
2009,05,26,10,43,13.10
2009,05,26,10,44,13.10
2009,05,26,10,45,13.20
2009,05,26,10,46,13.40
2009,05,26,10,47,13.40
2009,05,26,10,48,13.50
2009,05,26,10,49,13.50
2009,05,26,10,50,13.60
2009,05,26,10,51,13.60
2009,05,26,10,52,13.60
2009,05,26,10,53,13.60
2009,05,26,10,54,13.70
2009,05,26,10,55,13.70
2009,05,26,10,56,13.80
2009,05,26,10,57,13.80
2009,05,26,10,58,13.80
2009,05,26,10,59,13.90
2009,05,26,11,00,13.90
2009,05,26,11,01,13.90
2009,05,26,11,02,13.90
2009,05,26,11,03,14.00
2009,05,26,11,04,14.00
2009,05,26,11,05,14.10
2009,05,26,11,06,14.20
2009,05,26,11,07,14.20
2009,05,26,11,08,14.30
2009,05,26,11,09,14.30
2009,05,26,11,10,14.40
2009,05,26,11,11,14.40
2009,05,26,11,12,14.50
2009,05,26,11,13,14.60
2009,05,26,11,14,14.60
2009,05,26,11,15,14.60
2009,05,26,11,16,14.70
2009,05,26,11,17,14.70
2009,05,26,11,18,14.70
2009,05,26,11,19,14.70
2009,05,26,11,20,14.60
2009,05,26,11,21,14.50
2009,05,26,11,22,14.50
2009,05,26,11,23,14.40
2009,05,26,11,24,14.30
2009,05,26,11,25,14.30
2009,05,26,11,26,14.30
2009,05,26,11,27,14.20
2009,05,26,11,28,14.20
2009,05,26,11,29,14.20
2009,05,26,11,30,14.10
2009,05,26,11,31,14.10
2009,05,26,11,32,14.00
2009,05,26,11,33,14.00
2009,05,26,11,34,14.00
2009,05,26,11,35,13.90
2009,05,26,11,36,13.90
2009,05,26,11,37,13.90
2009,05,26,11,38,13.80
2009,05,26,11,39,13.80
2009,05,26,11,40,13.80
2009,05,26,11,41,13.80
2009,05,26,11,42,13.80
2009,05,26,11,43,13.70
2009,05,26,11,44,13.70
2009,05,26,11,45,13.70
2009,05,26,11,46,13.70
2009,05,26,11,47,13.80
2009,05,26,11,48,13.70
2009,05,26,11,49,13.80
2009,05,26,11,50,13.80
2009,05,26,11,51,13.80
2009,05,26,11,52,13.90
2009,05,26,11,53,13.90
2009,05,26,11,54,14.00
2009,05,26,11,55,14.10
2009,05,26,11,56,14.20
2009,05,26,11,57,14.30
2009,05,26,11,58,14.40
2009,05,26,11,59,14.50
2009,05,26,12,00,14.60
2009,05,26,12,01,14.70
2009,05,26,12,02,14.80
2009,05,26,12,03,15.00
2009,05,26,12,04,15.00
2009,05,26,12,05,15.00
2009,05,26,12,06,15.00
2009,05,26,12,07,15.00
2009,05,26,12,08,15.10
2009,05,26,12,09,15.20
2009,05,26,12,10,15.20
2009,05,26,12,11,15.20
2009,05,26,12,12,15.30
2009,05,26,12,13,15.30
2009,05,26,12,14,15.40
2009,05,26,12,15,15.40
2009,05,26,12,16,15.40
2009,05,26,12,17,15.40
2009,05,26,12,18,15.40
2009,05,26,12,19,15.40
2009,05,26,12,20,15.40
2009,05,26,12,21,15.40
2009,05,26,12,22,15.40
2009,05,26,12,23,15.40
2009,05,26,12,24,15.40
2009,05,26,12,25,15.40
2009,05,26,12,26,15.30
2009,05,26,12,27,15.40
2009,05,26,12,28,15.40
2009,05,26,12,29,15.50
2009,05,26,12,30,15.40
2009,05,26,12,31,15.40
2009,05,26,12,32,15.40
2009,05,26,12,33,15.50
2009,05,26,12,34,15.50
2009,05,26,12,35,15.60
2009,05,26,12,36,15.70
2009,05,26,12,37,15.70
2009,05,26,12,38,15.80
2009,05,26,12,39,15.80
2009,05,26,12,40,16.00
2009,05,26,12,41,16.20
2009,05,26,12,42,16.30
2009,05,26,12,43,16.30
2009,05,26,12,44,16.30
2009,05,26,12,45,16.40
2009,05,26,12,46,16.40
2009,05,26,12,47,16.40
2009,05,26,12,48,16.50
2009,05,26,12,49,16.50
2009,05,26,12,50,16.50
2009,05,26,12,51,16.40
2009,05,26,12,52,16.30
2009,05,26,12,53,16.30
2009,05,26,12,54,16.30
2009,05,26,12,55,16.30
2009,05,26,12,56,16.30
2009,05,26,12,57,16.30
2009,05,26,12,58,16.20
2009,05,26,12,59,16.30
2009,05,26,13,00,16.30
2009,05,26,13,01,16.40
2009,05,26,13,02,16.40
2009,05,26,13,03,16.40
2009,05,26,13,04,16.40
2009,05,26,13,05,16.40
2009,05,26,13,06,16.40
2009,05,26,13,07,16.40
2009,05,26,13,08,16.50
2009,05,26,13,09,16.60
2009,05,26,13,10,16.70
2009,05,26,13,11,16.80
2009,05,26,13,12,16.90
2009,05,26,13,13,16.90
2009,05,26,13,14,16.80
2009,05,26,13,15,16.80
2009,05,26,13,16,16.80
2009,05,26,13,17,16.90
2009,05,26,13,18,16.90
2009,05,26,13,19,17.00
2009,05,26,13,20,17.00
2009,05,26,13,21,17.00
2009,05,26,13,22,17.00
2009,05,26,13,23,16.90
2009,05,26,13,24,16.90
2009,05,26,13,25,16.80
2009,05,26,13,26,16.80
2009,05,26,13,27,16.90
2009,05,26,13,28,16.90
2009,05,26,13,29,16.90
2009,05,26,13,30,16.90
2009,05,26,13,31,16.90
2009,05,26,13,32,17.00
2009,05,26,13,33,17.00
2009,05,26,13,34,17.10
2009,05,26,13,35,17.20
2009,05,26,13,36,17.20
2009,05,26,13,37,17.30
2009,05,26,13,38,17.20
2009,05,26,13,39,17.10
2009,05,26,13,40,17.00
2009,05,26,13,41,17.00
2009,05,26,13,42,17.00
2009,05,26,13,43,17.00
2009,05,26,13,44,17.00
2009,05,26,13,45,17.10
2009,05,26,13,46,17.20
2009,05,26,13,47,17.20
2009,05,26,13,48,17.20
2009,05,26,13,49,17.10
2009,05,26,13,50,17.00
2009,05,26,13,51,16.90
2009,05,26,13,52,16.90
2009,05,26,13,53,16.90
2009,05,26,13,54,16.80
2009,05,26,13,55,16.80
2009,05,26,13,56,16.90
2009,05,26,13,57,16.90
2009,05,26,13,58,16.90
2009,05,26,13,59,16.80
2009,05,26,14,00,16.70
2009,05,26,14,01,16.70
2009,05,26,14,02,16.70
2009,05,26,14,03,16.80
2009,05,26,14,04,16.90
2009,05,26,14,05,17.00
2009,05,26,14,06,17.10
2009,05,26,14,07,17.20
2009,05,26,14,08,17.30
2009,05,26,14,09,17.30
2009,05,26,14,10,17.30
2009,05,26,14,11,17.40
2009,05,26,14,12,17.40
2009,05,26,14,13,17.40
2009,05,26,14,14,17.50
2009,05,26,14,15,17.50
2009,05,26,14,16,17.60
2009,05,26,14,17,17.70
2009,05,26,14,18,17.70
2009,05,26,14,19,17.70
2009,05,26,14,20,17.70
2009,05,26,14,21,17.60
2009,05,26,14,22,17.50
2009,05,26,14,23,17.40
2009,05,26,14,24,17.40
2009,05,26,14,25,17.40
2009,05,26,14,26,17.50
2009,05,26,14,27,17.50
2009,05,26,14,28,17.40
2009,05,26,14,29,17.50
2009,05,26,14,30,17.50
2009,05,26,14,31,17.60
2009,05,26,14,32,17.70
2009,05,26,14,33,17.70
2009,05,26,14,34,17.70
2009,05,26,14,35,17.80
2009,05,26,14,36,17.80
2009,05,26,14,37,17.90
2009,05,26,14,38,17.90
2009,05,26,14,39,17.80
2009,05,26,14,40,17.70
2009,05,26,14,41,17.60
2009,05,26,14,42,17.60
2009,05,26,14,43,17.60
2009,05,26,14,44,17.60
2009,05,26,14,45,17.60
2009,05,26,14,46,17.70
2009,05,26,14,47,17.70
2009,05,26,14,48,17.70
2009,05,26,14,49,17.60
2009,05,26,14,50,17.60
2009,05,26,14,51,17.60
2009,05,26,14,52,17.60
2009,05,26,14,53,17.50
2009,05,26,14,54,17.50
2009,05,26,14,55,17.40
2009,05,26,14,56,17.30
2009,05,26,14,57,17.20
2009,05,26,14,58,17.10
2009,05,26,14,59,17.10
2009,05,26,15,10,17.10
2009,05,26,15,11,17.10
2009,05,26,15,12,17.10
2009,05,26,15,13,17.20
2009,05,26,15,14,17.30
2009,05,26,15,15,17.20
2009,05,26,15,16,17.20
2009,05,26,15,17,17.20
2009,05,26,15,18,17.10
2009,05,26,15,19,17.00
2009,05,26,15,20,17.00
2009,05,26,15,21,17.00
2009,05,26,15,22,16.90
2009,05,26,15,23,16.90
2009,05,26,15,24,16.80
2009,05,26,15,25,16.80
2009,05,26,15,26,16.80
2009,05,26,15,27,16.80
2009,05,26,15,28,16.70
2009,05,26,15,29,16.80
2009,05,26,15,30,16.80
2009,05,26,15,31,16.80
2009,05,26,15,32,16.80
2009,05,26,15,33,16.80
2009,05,26,15,34,16.80
2009,05,26,15,35,16.80
2009,05,26,15,36,16.80
2009,05,26,15,37,16.80
2009,05,26,15,38,16.80
2009,05,26,15,39,16.80
2009,05,26,15,40,16.80
2009,05,26,15,41,16.80
2009,05,26,15,42,16.60
2009,05,26,15,43,16.60
2009,05,26,15,44,16.50
2009,05,26,15,45,16.50
2009,05,26,15,46,16.60
2009,05,26,15,47,16.50
2009,05,26,15,48,16.60
2009,05,26,15,49,16.60
2009,05,26,15,50,16.60
2009,05,26,15,51,16.60
2009,05,26,15,52,16.60
2009,05,26,15,53,16.60
2009,05,26,15,54,16.50
2009,05,26,15,55,16.40
2009,05,26,15,56,16.50
2009,05,26,15,57,16.40
2009,05,26,15,58,16.40
2009,05,26,15,59,16.50
2009,05,26,16,00,16.50
2009,05,26,16,01,16.40
2009,05,26,16,02,16.40
2009,05,26,16,03,16.50
2009,05,26,16,04,16.60
2009,05,26,16,05,16.60
2009,05,26,16,06,16.50
2009,05,26,16,07,16.40
2009,05,26,16,08,16.30
2009,05,26,16,09,16.30
2009,05,26,16,10,16.40
2009,05,26,16,11,16.50
2009,05,26,16,12,16.60
2009,05,26,16,13,16.60
2009,05,26,16,14,16.70
2009,05,26,16,15,16.70
2009,05,26,16,16,16.70
2009,05,26,16,17,16.70
2009,05,26,16,18,16.60
2009,05,26,16,19,16.60
2009,05,26,16,20,16.50
2009,05,26,16,21,16.40
2009,05,26,16,22,16.50
2009,05,26,16,23,16.50
2009,05,26,16,24,16.50
2009,05,26,16,25,16.60
2009,05,26,16,26,16.50
2009,05,26,16,27,16.50
2009,05,26,16,28,16.50
2009,05,26,16,29,16.50
2009,05,26,16,30,16.50
2009,05,26,16,31,16.50
2009,05,26,16,32,16.50
2009,05,26,16,33,16.50
2009,05,26,16,34,16.50
2009,05,26,16,35,16.50
2009,05,26,16,36,16.40
2009,05,26,16,37,16.40
2009,05,26,16,38,16.30
2009,05,26,16,39,16.20
2009,05,26,16,40,16.20
2009,05,26,16,41,16.20
2009,05,26,16,42,16.20
2009,05,26,16,43,16.20
2009,05,26,16,44,16.30
2009,05,26,16,45,16.30
2009,05,26,16,46,16.40
2009,05,26,16,47,16.60
2009,05,26,16,48,16.70
2009,05,26,16,49,16.80
2009,05,26,16,50,16.80
2009,05,26,16,51,16.80
2009,05,26,16,52,16.90
2009,05,26,16,53,16.90
2009,05,26,16,54,16.90
2009,05,26,16,55,16.90
2009,05,26,16,56,16.80
2009,05,26,16,57,16.80
2009,05,26,16,58,16.70
2009,05,26,16,59,16.70
2009,05,26,17,00,16.80
2009,05,26,17,01,16.80
2009,05,26,17,02,16.80
2009,05,26,17,03,16.90
2009,05,26,17,04,16.90
2009,05,26,17,05,16.90
2009,05,26,17,06,16.90
2009,05,26,17,07,17.00
2009,05,26,17,08,16.90
2009,05,26,17,09,16.90
2009,05,26,17,10,16.80
2009,05,26,17,11,16.80
2009,05,26,17,12,16.80
2009,05,26,17,13,16.80
2009,05,26,17,14,16.80
2009,05,26,17,15,16.80
2009,05,26,17,16,16.80
2009,05,26,17,17,16.80
2009,05,26,17,18,16.70
2009,05,26,17,19,16.70
2009,05,26,17,20,16.80
2009,05,26,17,21,16.80
2009,05,26,17,22,16.90
2009,05,26,17,23,16.90
2009,05,26,17,24,16.80
2009,05,26,17,25,16.80
2009,05,26,17,26,16.80
2009,05,26,17,27,16.90
2009,05,26,17,28,16.90
2009,05,26,17,29,16.90
2009,05,26,17,30,16.90
2009,05,26,17,31,16.80
2009,05,26,17,32,16.80
2009,05,26,17,33,16.70